DECAYED

STARLINK-1104, 44922 (Decayed)

Orbit data source: Space-Track

STARLINK-1104, 44922 was a payload satellite owned by SpaceX/Seattle (US) in LEO that was launched on Tue, 07 Jan 2020 UTC via an FALCON 9 launch vehicle from the Air Force Eastern Test Range (AFETR). Payload-class satellites include a variety of spacecraft equipped with specific instruments for various scientific and technological missions. These include communications satellites like Starlink; space stations such as the ISS; scientific satellites like the Hubble; Earth observation satellites from companies like Planet Labs, Umbra, and HawkEye 360; GPS; miniature CubeSats for education and research; and military/defense satellites.

Not visible in the next 10 days
Identifier
44922, 2020-001J
Orbit
Decayed
Country
Flag of USUS
Related business
Manufacturer
SpaceX/Seattle
Mission
Decayed Commercial Communications
Bus & Motor
STARLINK, Unknown motor
Mass
260 kg wet, ~248 kg dry
Launch date (UTC)
2020-01-07 (6 years ago)
Launch vehicle
FALCON 9
Launch site
Air Force Eastern Test Range (AFETR)
Object type
Payload
Rocket body
Debris
Shape & HBR
Box + 1 Pan, 10.1 m
Radar Cross Section
13.562 m², Large (>1 m²)

Expand to show TLE details & history
Last TLE update: 1 month ago

TLE from 1 month ago
0 STARLINK-1104
1 44922U 20001J   25254.89606096  .06152654  12315-4  67885-3 0  9998
2 44922  53.0347  10.0039 0003924 343.4168  16.6748 16.36440731313728
Epoch: 2025-09-11T21:30Z
TLE epoch observation values (Epoch: 2025-09-11T21:30:19.666Z)
Latitude
-0.00004°
Longitude
56.27038°
Altitude
173.751 km
Speed
7.805 km/s
True Right ascension
00h 40m 00s
True Declination
0° 00' 00"
Sunlit
Object was in full shadow at epoch
Visualization orbit readout
Latitude
Unknown
Longitude
Unknown
Altitude
Unknown
Speed
Unknown
Apparent Right ascension
Unknown
Apparent Declination
Unknown
Sunlit
N/A
Visualization observer readout
Local Sidereal Time
11:55:48
Azimuth
Unknown
Elevation
Unknown
Doppler factor
Unknown
Orbital elements
Apogee altitude
178.148 km
Perigee altitude
173.005 km
Semi-major axis
6,553.714 km
Eccentricity
0.00039
Inclination
53.0347°
RAAN
10.0039°
Arg. of periapsis
343.4168°
True anomaly
16.68771°
Mean anomaly
16.6748°
Eccentric anomaly
16.68125°
Mean motion
4.09084 °/min
Orbital period
88 mins
BSTAR
0.00067885
Loading maneuver chart data...
Computing Atmospheric mass density...

Documentation

Showing up to 5 results
|